User: anonymous   Login
Location: Unspecified
(0.0000°N, 0.0000°E)
Time: 03:23:11
(UTC+02:00)
Language:

Cosmos 1703 Rocket - Orbit

View from above orbital plane
View from above orbital plane
View from above satellite
View from above satellite

Ground track
Ground track

The orbit data is extracted from the following two-line orbital elements,

1 16263U 85108B   15214.55618905  .00000212  00000-0  23110-4 0  9998
2 16263 082.5023 036.5049 0021764 083.3536 333.0697 14.82793858602920
Epoch (UTC): 02 August 2015 13:20:54
Eccentricity: 0.0021764
inclination: 82.5023°
perigee height: 605 km
apogee height: 636 km
right ascension of ascending node: 36.5049°
argument of perigee: 83.3536°
revolutions per day: 14.82793858
mean anomaly at epoch: 333.0697°
orbit number at epoch: 60292

The dashed part of the orbit path shows where the satellite is in the earth's shadow,  

DLR